Location: Bukit Lungun
(2.6833°N, 113.9667°E)
Time: 13:19:05
(UTC+00:00)

Cosmos 1486 Rocket - Pass Details

Date: 02 March 2021
Orbit: 758 x 784 km, 74.1° (Epoch: 20 April)

Event Time Altitude Azimuth Distance (km) Brightness Sun altitude
Rises 11:59:30 0° 357° (N) 3,247 7.2 -21.0°
Reaches altitude 10° 12:01:56 10° 2° (N) 2,324 6.4 -21.6°
Enters shadow 12:06:21 49° 50° (NE) 1,005 4.2 -22.7°
